Lid_Strength_Index
7 7 7 7 7 7 8 7 9 8 8 6 5 5 5 4 4 4 4 4 4 3 3 2 2 1 1 1 0 0 1 1 1 0 0 0 0 0 -0 -0 0 0 1 0
8 7 7 8 7 7 7 7 7 7 7 5 5 4 5 5 5 5 4 4 3 3 2 2 2 1 1 1 1 0 0 1 0 -0 -0 -0 -0 0 0 1 1 1 1 1
10 7 7 9 8 7 7 6 6 8 6 5 6 5 5 5 5 4 4 4 3 3 2 2 2 1 1 1 0 0 0 0 -0 -0 -0 -0 -0 -0 1 2 1 1 1 1
10 8 13 7 5 6 6 6 5 5 5 5 5 5 4 4 4 4 4 3 3 2 2 1 1 1 0 0 0 1 0 0 0 -0 -0 0 -0 0 0 1 1 1 1 1
10 10 8 7 7 7 7 7 5 6 5 5 5 4 4 3 3 3 3 2 2 1 1 1 1 1 0 1 1 1 1 1 0 -0 0 0 0 1 0 1 1 1 1 1
8 11 12 9 6 5 5 9 5 5 6 6 5 8 6 3 3 2 2 2 2 1 1 1 1 1 1 1 1 1 1 1 0 0 0 1 1 1 0 0 1 1 1 0
9 10 9 6 5 5 10 10 5 5 5 5 6 5 3 2 2 2 2 2 1 1 2 1 1 1 1 1 2 1 0 0 0 0 0 0 0 0 0 1 1 1 1 1
9 11 12 5 5 9 6 4 4 4 4 4 4 3 3 3 2 2 2 2 1 2 2 1 1 1 2 2 1 0 1 1 1 1 1 1 1 1 1 1 1 1 2 1
8 9 6 4 5 4 3 4 4 4 3 3 4 3 3 3 3 2 2 2 1 2 2 1 1 1 2 1 1 0 1 1 1 1 1 1 1 1 1 1 2 2 2 2
7 6 5 4 3 3 3 3 3 3 3 3 4 3 3 3 3 3 2 2 2 2 3 3 2 2 2 1 1 1 2 2 1 1 1 1 1 1 1 2 2 2 2 2
7 5 5 4 4 3 3 3 3 3 3 3 3 3 3 3 3 3 3 3 2 3 3 3 2 2 1 1 1 2 2 2 2 1 2 2 1 1 1 1 1 1 1 1
8 5 5 5 3 3 3 3 3 3 3 3 3 3 3 4 3 3 3 2 2 2 2 2 2 2 1 1 1 2 2 2 2 2 2 2 2 2 4 4 5 7 8 5
5 3 3 3 3 2 3 3 3 3 3 4 3 3 3 4 3 3 3 2 3 3 2 2 2 2 1 1 1 1 2 2 2 2 2 2 2 2 3 2 6 7 7 8
3 3 4 3 4 3 3 3 3 3 3 3 3 2 3 3 3 3 3 3 2 3 3 2 2 2 2 1 1 2 2 4 2 2 2 2 2 2 2 2 2 2 6 6
3 3 3 2 3 3 3 3 3 4 3 4 3 3 3 4 4 4 2 2 2 3 3 2 2 2 2 1 1 2 2 2 2 2 2 2 2 2 2 2 2 2 1 5
3 3 3 3 4 4 3 3 4 4 4 4 4 4 4 4 3 3 3 2 3 4 3 2 3 1 1 1 2 2 2 2 2 2 2 2 2 2 3 2 2 2 2 2
4 5 4 4 4 4 4 4 4 4 4 4 4 3 3 3 3 3 3 2 2 2 2 2 2 1 0 1 1 1 1 1 2 2 2 2 2 2 2 3 3 3 2 2
3 3 3 3 4 4 4 4 4 4 4 4 3 4 4 4 4 3 3 2 2 2 2 1 1 1 1 0 1 1 1 2 2 2 2 2 2 2 2 2 2 2 2 2
3 3 3 2 3 3 4 4 3 4 4 3 4 4 4 4 4 3 2 3 4 5 4 2 3 2 1 1 1 1 1 2 2 2 2 3 2 2 2 2 2 2 2 2
3 2 2 2 2 3 4 3 3 3 4 4 5 6 6 5 5 4 5 5 6 6 5 5 4 5 5 4 4 2 2 2 2 2 2 2 2 2 2 3 2 2 2 2
3 2 2 3 3 3 3 3 3 3 4 5 6 6 6 5 5 5 7 7 7 6 6 6 7 7 7 6 5 4 2 2 2 2 3 2 2 2 2 2 2 2 1 1
3 2 3 3 3 3 2 2 3 3 3 5 5 5 4 5 6 6 6 8 7 6 6 6 7 7 6 5 5 4 2 2 2 2 2 2 3 2 2 3 2 2 1 1
2 2 3 3 3 3 2 2 2 2 2 3 4 3 3 4 5 6 7 5 5 6 5 6 7 7 7 7 5 5 5 4 3 2 2 2 2 2 2 2 2 2 1 1
2 2 2 2 2 2 3 2 2 2 2 2 2 2 3 4 3 3 2 3 4 3 4 5 6 7 8 8 8 8 8 8 7 8 7 8 6 6 6 6 5 3 2 3
1 1 2 2 2 2 2 2 3 2 2 2 2 2 2 2 3 3 3 3 4 3 2 3 4 7 8 8 9 8 9 8 8 8 8 9 9 9 8 8 8 8 8 7
2 2 2 1 2 3 3 3 4 3 3 3 3 3 2 2 2 2 2 3 3 3 2 2 2 3 6 8 8 9 9 10 9 9 9 9 9 9 10 10 10 10 11 11
3 6 3 3 3 3 3 3 3 3 3 2 3 2 2 2 2 3 3 2 3 3 3 2 3 3 3 4 6 7 8 8 10 9 9 9 9 10 10 11 11 11 12 12